Regional Weather Roundup
Issued by NWS

Home | Current Version | Previous Version | Graphics & Text | Print | Product List | Glossary On
Versions: 1 2 3 4 5 6 7 8 9 10 11 12 13 14 15 16 17 18 19 20 21 22 23 24 25 26 27 28 29 30 31 32 33 34 35 36 37 38 39 40 41 42 43 44 45 46 47 48 49 50
000
ASUS43 KMPX 241901
RWRMN
WEATHER ROUNDUP FOR MINNESOTA
NATIONAL WEATHER SERVICE TWIN CITIES/CHANHASSEN MN
200 PM CDT TUE APR 24 2018


NOTE: "FAIR" INDICATES FEW OR NO CLOUDS BELOW 12,000 FEET WITH NO
SIGNIFICANT WEATHER AND/OR OBSTRUCTIONS TO VISIBILITY. N/A MEANS
CURRENT SKY AND/OR WEATHER CONDITIONS ARE NOT AVAILABLE.

MNZ060>063-068>070-242000-
   Twin Cities Metro

CITY           SKY/WX    TMP DP  RH WIND       PRES   REMARKS
TWIN CITIES    PTSUNNY   63  33  32 N15       30.16S
ST PAUL        FAIR      62  34  35 N14       30.16S
CRYSTAL        FAIR      59  30  33 N17G24    30.17S
BLAINE         PTSUNNY   61  30  31 N17G26    30.18S
LAKEVILLE      FAIR      63  34  34 N14G20    30.14S
EDEN PRAIRIE   PTSUNNY   62  33  33 N17G24    30.15F
SOUTH ST PAUL  FAIR      63  32  31 N14       30.15S
LAKE ELMO      FAIR      61  36  39 NW15G23   30.16S
$$
MNZ001>005-007-008-013>017-022>024-027-028-242000-
   Northwest Minnesota

CITY           SKY/WX    TMP DP  RH WIND       PRES   REMARKS
BEMIDJI        FAIR      52  26  36 NW21      30.27F
HALLOCK        FAIR      50  21  32 N22G28    30.38F
ROSEAU         FAIR      45  30  57 NE17      30.35S
WARROAD        FAIR      41  28  60 E7        30.35F
THIEF RVR FALL FAIR      49  27  42 NW24      30.34F
CROOKSTON      FAIR      50  32  50 N25       30.36F
FOSSTON        FAIR      48  28  46 NW18G24   30.32F
DETROIT LAKES  FAIR      50  32  50 NW16G23   30.32S
MOORHEAD       FAIR      50  36  57 N21G30    30.36S
PARK RAPIDS    FAIR      53  25  33 NW14      30.26F
MAHNOMEN       FAIR      49  31  49 N22       30.32F
$$
MNZ006-009>011-018-025>026-242000-
   North Central Minnesota

CITY           SKY/WX    TMP DP  RH WIND       PRES   REMARKS
BAUDETTE       FAIR      38  24  57 NW18G29   30.33S
FLAG ISLAND    FAIR      36  21  55 N14       30.35F
INTL FALLS     FAIR      44  26  49 N12       30.28S
WASKISH        CLOUDY    48  28  46 NW12G18   30.29S
BIG FORK       FAIR      52  27  37 N8G20     30.24F
LONGVILLE      FAIR      52  23  32 NW10G16   30.26S
GRAND RAPIDS   FAIR      51  26  37 N17G25    30.25F
CRANE LAKE     FAIR      45  25  45 NW10G17   30.27R
ORR            FAIR      48  21  34 NW13G20   30.21F
COOK           FAIR      50  27  40 W14G35    30.22F
WALKER         FAIR      51  26  37 NW14G22   30.26F
$$
MNZ012-019>021-037-242000-
   Northeast Minnesota

CITY           SKY/WX    TMP DP  RH WIND       PRES   REMARKS
DULUTH         PTSUNNY   50  34  54 NW8       30.20F
ELY            FAIR      48  23  37 NW16G22   30.19S
HIBBING        FAIR      52  28  39 NW18G24   30.21F
EVELETH        FAIR      51  28  40 NW15      30.21F
DULUTH HARBOR  CLOUDY    45  30  57 CALM      30.23F
TWO HARBORS    FAIR      55  37  50 S6        30.18F
SILVER BAY     PTSUNNY   52  32  46 S8        30.17F
GRAND MARAIS     N/A     42  31  64 SW10      30.19S
G MARAIS ARPRT FAIR      46  25  42 W8G16     30.17S
$$
MNZ029>031-032-039>041-046>048-054>057-064-242000-
   West Central Minnesota

CITY           SKY/WX    TMP DP  RH WIND       PRES   REMARKS
FERGUS FALLS   FAIR      52  32  46 N15G24    30.29F
WHEATON        CLOUDY    48  37  66 N14       30.35F
MORRIS         CLOUDY    46  39  76 N16       30.30S
ALEXANDRIA     CLOUDY    49  36  61 N12       30.29S
ELBOW LAKE     PTSUNNY   48  36  63 N13G21    30.31F
WADENA         FAIR      52  36  54 N13       30.27F
GLENWOOD       FAIR      46  39  76 N10       30.28S
APPLETON       RAIN      46  43  87 N18       30.30S
BENSON         RAIN      46  43  87 NE12      30.30F
ORTONVILLE     DRIZZLE   45  41  87 N17       30.31F
WILLMAR        FAIR      46  43  87 N17       30.29R
$$
MNZ033>034-036-042>043-049>051-058-059-242000-
   Central Minnesota

CITY           SKY/WX    TMP DP  RH WIND       PRES   REMARKS
ST CLOUD       LGT RAIN  47  41  80 N17G23    30.24R
SAUK CENTRE    FAIR      46  39  75 N14       30.26F
PAYNESVILLE    DRIZZLE   46  43  86 N13G18    30.26S
AITKIN         FAIR      48  34  57 N12       30.23F
PINE RIVER     FAIR      50  28  43 NW8       30.28F
BRAINERD       FAIR      52  33  48 N10       30.26F
STAPLES        FAIR      54  30  40 N13       30.27F
LONG PRAIRIE   FAIR      46  36  66 NW13      30.27F
LITTLE FALLS   CLOUDY    46  32  57 N7G16     30.26S
LITCHFIELD     FAIR      55  41  58 N17       30.23R
BUFFALO        PTSUNNY   56  32  39 N13G21    30.22R
MAPLE LAKE     PTSUNNY   55  39  54 N14       30.22F
HUTCHINSON     FAIR      58  40  50 N14G24    30.22R
$$
MNZ037-044-045-052-053-242000-
   East Central Minnesota

CITY           SKY/WX    TMP DP  RH WIND       PRES   REMARKS
PRINCETON      FAIR      52  37  58 N13G21    30.23R
MORA           DRIZZLE   48  34  57 N9G16     30.24R
CAMBRIDGE      PTSUNNY   57  37  47 N8        30.21R
RUSH CITY      CLOUDY    55  32  41 N14G20    30.20S
MOOSE LAKE     CLOUDY    46  36  66 N8        30.21F
HINCKLEY       CLOUDY    50  36  57 N14       30.22R
CLOQUET        CLOUDY    48  32  53 NW8       30.22S
MCGREGOR       FAIR      50  36  57 N7        30.24F
$$
MNZ071>073-080-081-089-090-097-098-242000-
   Southwest Minnesota

CITY           SKY/WX    TMP DP  RH WIND       PRES   REMARKS
MONTEVIDEO     CLOUDY    46  43  87 NE15G26   30.28S
GRANITE FALLS  LGT RAIN  51  46  83 NW16G23   30.28S
CANBY          CLOUDY    46  42  83 N17G23    30.30S
MARSHALL       LGT RAIN  49  43  80 N17       30.25F
REDWOOD FALLS  LGT RAIN  52  41  66 N13G20    30.23S
OLIVIA         LGT RAIN  52  41  66 N17       30.23S
PIPESTONE      CLOUDY   N/A N/A N/A NE20G28   30.22S
WINDOM         CLOUDY    55  34  44 N22G31    30.19S
WORTHINGTON    PTSUNNY   51  40  65 N22G30    30.20S
JACKSON        MOSUNNY   54  43  66 N14G24    30.19S
TRACY          DRIZZLE   49  44  82 N20       30.23F
SLAYTON        LGT RAIN  46  41  81 N17G25    30.23S
$$
MNZ065>067-074>077-082>085-091>093-242000-
   South Central Minnesota

CITY           SKY/WX    TMP DP  RH WIND       PRES   REMARKS
MANKATO        FAIR      60  39  45 N20G26    30.14F
NEW ULM        CLOUDY    57  34  41 N13G24    30.19R
ST JAMES       CLOUDY    57  43  58 N18       30.19R
FAIRMONT       MOSUNNY   57  44  62 N18       30.16S
GLENCOE        FAIR      60  36  40 N10G24    30.18F
OWATONNA       FAIR      63  43  48 N18       30.12F
WASECA         FAIR      63  43  48 N15       30.13F
ALBERT LEA     FAIR      64  45  48 NW14      30.11S
$$
MNZ078>079-086>088-094>096-242000-
   Southeast Minnesota

CITY           SKY/WX    TMP DP  RH WIND       PRES   REMARKS
ROCHESTER      PTSUNNY   69  43  38 NW13      30.09F
RED WING       FAIR      66  27  22 N12G20    30.10S
STANTON        FAIR      64  38  39 N17       30.11F
DODGE CENTER   PTSUNNY   63  43  48 NW17G25   30.11S
WINONA         FAIR      70  36  28 NW10      30.04F
AUSTIN         CLOUDY    64  41  42 NW8       30.09F
PRESTON        PTSUNNY   67  37  32 NW8       30.08F
$$
ABBREVIATIONS USED IN REMARKS
   TC - TEMPERATURES IN CELSIUS
  WCI - WIND CHILL INDEX
   HX - HEAT INDEX
  VSB - VISIBILITY
$$



USA.gov is the U.S. government's official web portal to all federal, state and local government web resources and services.